Observations for Trim Patrick St
| Time | AQI | Temp °C | Hum % | Pres Pa | CO μg/m³ | H₂S μg/m³ | NO μg/m³ | NO₂ μg/m³ | O₃ μg/m³ | SO₂ μg/m³ | PM1 μg/m³ | PM2.5 μg/m³ | PM10 μg/m³ |
|---|---|---|---|---|---|---|---|---|---|---|---|---|---|
| Sunday 9 August 2026 | |||||||||||||
| 06:47 | 2 | 18 | 74 | 38,459 | 0.09 | 8.45 | 1.81 | 27.1 | 47.05 | 0.98 | 5.43 | 9.16 | 10.08 |
| 06:46 | 2 | 18 | 74 | 38,459 | 0.1 | 7.37 | 1.81 | 33.18 | 43.68 | 1.4 | 5.43 | 10.59 | 11.65 |
| 06:45 | 2 | 18 | 74 | 38,459 | 0.09 | 6.79 | 1.74 | 19.77 | 38.45 | 1.69 | 5.43 | 9.89 | 10.88 |
| 06:44 | 2 | 18 | 74 | 38,459 | 0.09 | 8.86 | 1.79 | 29.82 | 40.61 | 1.15 | 6.29 | 10.6 | 11.66 |
| 06:43 | 2 | 18 | 74 | 38,459 | 0.08 | 6.98 | 1.72 | 24.37 | 33.12 | 1.19 | 5.43 | 9.2 | 10.12 |
| 06:42 | 2 | 18 | 73 | 38,459 | 0.09 | 7.71 | 1.67 | 33.07 | 45.98 | 0.98 | 4.57 | 8.52 | 9.37 |
| 06:41 | 2 | 18 | 73 | 38,459 | 0.09 | 4.33 | 1.59 | 19.59 | 35.13 | 1.44 | 5.43 | 9.24 | 10.17 |
| 06:40 | 2 | 18 | 73 | 38,458 | 0.08 | 6.35 | 1.74 | 12.76 | 44.3 | 1.32 | 6.29 | 9.94 | 10.94 |
| 06:39 | 2 | 18 | 73 | 38,457 | 0.09 | 7.9 | 1.68 | 24.24 | 48.35 | 0.94 | 5.43 | 9.27 | 10.19 |
| 06:38 | 2 | 18 | 74 | 38,456 | 0.1 | 7.48 | 1.79 | 37.88 | 36.43 | 0.88 | 4.57 | 8.5 | 9.35 |
| 06:37 | 2 | 18 | 74 | 38,455 | 0.08 | 6.51 | 1.84 | 12.56 | 43.8 | 1.48 | 6.29 | 9.93 | 10.92 |
| 06:36 | 2 | 18 | 73 | 38,453 | 0.09 | 6.45 | 1.85 | 30.94 | 42.11 | 0.87 | 6.29 | 10.65 | 11.71 |
| 06:35 | 2 | 18 | 73 | 38,450 | 0.08 | 5.98 | 1.85 | 13.45 | 47.35 | 1.07 | 3.71 | 8.51 | 9.36 |
| 06:34 | 2 | 18 | 73 | 38,446 | 0.08 | 7.45 | 1.84 | 23.14 | 39.85 | 1.41 | 5.43 | 8.54 | 9.39 |
| 06:33 | 2 | 18 | 73 | 38,442 | 0.07 | 5.98 | 1.83 | 31.96 | 39.17 | 0.48 | 6.29 | 9.95 | 10.95 |
| 06:32 | 2 | 18 | 73 | 38,435 | 0.09 | 4.91 | 1.56 | 22.22 | 39.29 | 0.88 | 6.29 | 9.25 | 10.18 |
| 06:31 | 2 | 18 | 73 | 38,427 | 0.08 | 5.75 | 1.56 | 10.93 | 39.12 | 1.67 | 5.43 | 9.24 | 10.17 |
| 06:30 | 2 | 18 | 73 | 38,415 | 0.08 | 8.45 | 1.49 | 35.34 | 48.04 | 0.26 | 5.43 | 9.25 | 10.18 |
| 06:29 | 2 | 18.1 | 73 | 38,400 | 0.07 | 6.61 | 1.46 | 26.09 | 47.08 | 0.84 | 5.43 | 9.99 | 10.99 |
| 06:28 | 2 | 18 | 72 | 38,380 | 0.07 | 5.43 | 1.43 | 18.41 | 53.28 | 0.85 | 4.57 | 8.62 | 9.48 |